Вернуться в каталог

CZ-6A DEB

АктивенPO
NORAD 60790·DEBRIS·🇨🇳 China

Запущен Aug 6, 2024 с Taiyuan Satellite Launch Center

Loading…

Ближайшие Пролёты (ближайшие 24 часа)

TLE

СвежийSource: Space-Track

Эпоха: Sep 14, 2026, 05:06 UTC

1 60790U 24140FR  26257.21306468  .00000439  00000-0  11833-3 0  9990
2 60790  88.8369 245.9427 0076556   6.3696 353.8461 14.44429517110124

Отслеживайте CZ-6A DEB в реальном времени с AllMySat

Download on the App Store